EN

Hourly Weather Lugi

Today, 25 November, Wednesday

Time Temperature Precipitation Wind Pressure Humidity
00:00 +2°C° 0.1 mm 2 mps 753 mmHg 94%
01:00 +3°C° 0.1 mm 1 mps 753 mmHg 94%
02:00 +3°C° 0.1 mm 1 mps 753 mmHg 94%
03:00 +4°C° 0.2 mm 1 mps 753 mmHg 95%
04:00 +3°C° 0.2 mm 0 mps 753 mmHg 95%
05:00 +3°C° 0.2 mm 0 mps 753 mmHg 95%
06:00 +3°C° 0.1 mm 0 mps 754 mmHg 95%
07:00 +4°C° 0.1 mm 1 mps 754 mmHg 95%
08:00 +4°C° 0.1 mm 1 mps 755 mmHg 95%
09:00 +4°C° 0 mm 1 mps 755 mmHg 94%
10:00 +4°C° 0 mm 1 mps 755 mmHg 93%
11:00 +5°C° 0 mm 1 mps 755 mmHg 92%
12:00 +5°C° 0 mm 1 mps 756 mmHg 92%
13:00 +5°C° 0 mm 1 mps 756 mmHg 92%
14:00 +5°C° 0 mm 1 mps 756 mmHg 92%
15:00 +5°C° 0 mm 1 mps 756 mmHg 93%
16:00 +4°C° 0 mm 2 mps 756 mmHg 95%
17:00 +4°C° 0 mm 2 mps 756 mmHg 96%
18:00 +4°C° 0.6 mm 2 mps 755 mmHg 96%
19:00 +4°C° 0.6 mm 3 mps 755 mmHg 97%
20:00 +4°C° 0.6 mm 3 mps 755 mmHg 97%
21:00 +5°C° 0.3 mm 3 mps 755 mmHg 96%
22:00 +5°C° 0.3 mm 3 mps 755 mmHg 95%
23:00 +7°C° 0.3 mm 3 mps 754 mmHg 94%

Tomorrow, 26 November, Thursday

Time Temperature Precipitation Wind Pressure Humidity
00:00 +7°C° 0 mm 3 mps 754 mmHg 93%
01:00 +7°C° 0 mm 3 mps 754 mmHg 92%
02:00 +6°C° 0 mm 4 mps 754 mmHg 91%
03:00 +6°C° 0 mm 4 mps 754 mmHg 89%
04:00 +6°C° 0 mm 4 mps 753 mmHg 88%
05:00 +6°C° 0 mm 4 mps 753 mmHg 86%
06:00 +6°C° 0 mm 4 mps 753 mmHg 85%
07:00 +5°C° 0 mm 4 mps 753 mmHg 84%
08:00 +5°C° 0 mm 4 mps 753 mmHg 83%
09:00 +5°C° 0 mm 4 mps 752 mmHg 83%
10:00 +5°C° 0 mm 4 mps 752 mmHg 83%
11:00 +5°C° 0 mm 4 mps 751 mmHg 82%
12:00 +5°C° 0 mm 4 mps 751 mmHg 82%
13:00 +5°C° 0 mm 5 mps 751 mmHg 83%
14:00 +5°C° 0 mm 5 mps 751 mmHg 83%
15:00 +5°C° 0.2 mm 5 mps 750 mmHg 84%
16:00 +5°C° 0.2 mm 5 mps 750 mmHg 85%
17:00 +5°C° 0.2 mm 5 mps 750 mmHg 87%
18:00 +5°C° 0.2 mm 4 mps 750 mmHg 87%
19:00 +5°C° 0.2 mm 4 mps 750 mmHg 88%
20:00 +5°C° 0.2 mm 4 mps 750 mmHg 89%
21:00 +5°C° 0.1 mm 4 mps 750 mmHg 90%
22:00 +5°C° 0.1 mm 3 mps 749 mmHg 91%
23:00 +5°C° 0.1 mm 3 mps 749 mmHg 92%

Day after tomorrow, 27 November, Friday

Time Temperature Precipitation Wind Pressure Humidity
00:00 +4°C° 0 mm 3 mps 749 mmHg 92%
01:00 +4°C° 0 mm 3 mps 749 mmHg 92%
02:00 +4°C° 0 mm 2 mps 749 mmHg 93%
03:00 +4°C° 0 mm 2 mps 749 mmHg 93%
04:00 +2°C° 0 mm 3 mps 749 mmHg 93%
05:00 +2°C° 0 mm 3 mps 749 mmHg 93%
06:00 +2°C° 0 mm 3 mps 749 mmHg 89%
07:00 +2°C° 0 mm 3 mps 749 mmHg 85%
08:00 +1°C° 0 mm 4 mps 750 mmHg 81%
09:00 0°C° 0.1 mm 4 mps 750 mmHg 83%
10:00 0°C° 0.1 mm 4 mps 750 mmHg 85%
11:00 0°C° 0.1 mm 4 mps 751 mmHg 87%
12:00 0°C° 0.1 mm 4 mps 751 mmHg 88%
13:00 0°C° 0.1 mm 4 mps 751 mmHg 90%
14:00 0°C° 0.1 mm 4 mps 751 mmHg 91%
15:00 0°C° 0.2 mm 4 mps 752 mmHg 92%
16:00 -1°C° 0.2 mm 4 mps 752 mmHg 92%
17:00 -1°C° 0.2 mm 4 mps 753 mmHg 93%
18:00 -1°C° 0.1 mm 4 mps 753 mmHg 94%
19:00 -1°C° 0.1 mm 4 mps 754 mmHg 94%
20:00 -1°C° 0.1 mm 4 mps 754 mmHg 94%
21:00 -1°C° 0.1 mm 4 mps 755 mmHg 94%
22:00 0°C° 0.1 mm 3 mps 755 mmHg 94%
23:00 0°C° 0.1 mm 3 mps 756 mmHg 93%

28 November, Saturday

Time Temperature Precipitation Wind Pressure Humidity
00:00 0°C° 0 mm 3 mps 756 mmHg 91%
01:00 -1°C° 0 mm 3 mps 757 mmHg 89%
02:00 -1°C° 0 mm 3 mps 758 mmHg 86%
03:00 -1°C° 0 mm 3 mps 758 mmHg 88%
04:00 -2°C° 0 mm 2 mps 759 mmHg 89%
05:00 -2°C° 0 mm 2 mps 759 mmHg 91%
06:00 -2°C° 0 mm 2 mps 760 mmHg 92%
07:00 -2°C° 0 mm 2 mps 760 mmHg 93%
08:00 -2°C° 0 mm 2 mps 761 mmHg 94%
09:00 -1°C° 0 mm 2 mps 761 mmHg 92%
10:00 -1°C° 0 mm 2 mps 762 mmHg 90%
11:00 +1°C° 0 mm 2 mps 763 mmHg 88%
12:00 +1°C° 0 mm 2 mps 763 mmHg 86%
13:00 +1°C° 0 mm 2 mps 763 mmHg 83%
14:00 +2°C° 0 mm 2 mps 764 mmHg 81%
15:00 +2°C° 0 mm 2 mps 764 mmHg 82%
16:00 +1°C° 0 mm 2 mps 764 mmHg 83%
17:00 +2°C° 0 mm 1 mps 765 mmHg 84%
18:00 +1°C° 0 mm 2 mps 765 mmHg 83%
19:00 +1°C° 0 mm 2 mps 766 mmHg 82%
20:00 +1°C° 0 mm 2 mps 766 mmHg 81%
21:00 +1°C° 0 mm 2 mps 766 mmHg 79%
22:00 +1°C° 0 mm 2 mps 767 mmHg 78%
23:00 +1°C° 0 mm 2 mps 767 mmHg 77%

29 November, Sunday

Time Temperature Precipitation Wind Pressure Humidity
00:00 +1°C° 0 mm 2 mps 767 mmHg 77%
01:00 +1°C° 0 mm 2 mps 767 mmHg 78%
02:00 +1°C° 0 mm 2 mps 767 mmHg 78%
03:00 +1°C° 0 mm 2 mps 768 mmHg 79%
04:00 +1°C° 0 mm 2 mps 768 mmHg 79%
05:00 +1°C° 0 mm 2 mps 768 mmHg 80%
06:00 -1°C° 0 mm 2 mps 768 mmHg 80%
07:00 -1°C° 0 mm 2 mps 768 mmHg 80%
08:00 -1°C° 0 mm 2 mps 769 mmHg 80%
09:00 -1°C° 0 mm 2 mps 769 mmHg 78%
10:00 +1°C° 0 mm 2 mps 769 mmHg 77%
11:00 +1°C° 0 mm 2 mps 769 mmHg 75%
12:00 +1°C° 0 mm 2 mps 769 mmHg 75%
13:00 +1°C° 0 mm 2 mps 769 mmHg 75%
14:00 +2°C° 0 mm 1 mps 769 mmHg 75%
15:00 -1°C° 0 mm 2 mps 769 mmHg 78%
16:00 -1°C° 0 mm 2 mps 769 mmHg 82%
17:00 -2°C° 0 mm 2 mps 769 mmHg 86%
18:00 -2°C° 0 mm 2 mps 769 mmHg 88%
19:00 -2°C° 0 mm 2 mps 769 mmHg 90%
20:00 -3°C° 0 mm 2 mps 769 mmHg 92%
21:00 -3°C° 0 mm 2 mps 769 mmHg 93%
22:00 -3°C° 0 mm 2 mps 769 mmHg 93%
23:00 -3°C° 0 mm 2 mps 769 mmHg 93%

30 November, Monday

Time Temperature Precipitation Wind Pressure Humidity
00:00 -3°C° 0 mm 2 mps 769 mmHg 92%
01:00 -3°C° 0 mm 2 mps 769 mmHg 91%
02:00 -3°C° 0 mm 2 mps 769 mmHg 90%
03:00 -4°C° 0 mm 3 mps 769 mmHg 86%
04:00 -2°C° 0 mm 3 mps 769 mmHg 82%
05:00 -2°C° 0 mm 3 mps 769 mmHg 78%
06:00 -2°C° 0 mm 3 mps 769 mmHg 77%
07:00 -2°C° 0 mm 3 mps 769 mmHg 77%
08:00 -3°C° 0 mm 4 mps 769 mmHg 76%
09:00 -2°C° 0 mm 3 mps 769 mmHg 76%
10:00 -2°C° 0 mm 3 mps 769 mmHg 75%
11:00 -2°C° 0 mm 3 mps 769 mmHg 75%
12:00 -2°C° 0 mm 3 mps 768 mmHg 76%
13:00 -2°C° 0 mm 3 mps 768 mmHg 78%
14:00 -2°C° 0 mm 3 mps 768 mmHg 79%
15:00 -2°C° 0 mm 3 mps 768 mmHg 81%
16:00 -2°C° 0 mm 3 mps 768 mmHg 83%
17:00 -4°C° 0 mm 3 mps 768 mmHg 85%
18:00 -4°C° 0 mm 3 mps 768 mmHg 85%
19:00 -2°C° 0 mm 3 mps 768 mmHg 85%
20:00 -2°C° 0 mm 3 mps 768 mmHg 85%
21:00 -2°C° 0 mm 3 mps 768 mmHg 86%
22:00 -2°C° 0 mm 3 mps 769 mmHg 88%
23:00 -2°C° 0 mm 2 mps 769 mmHg 89%
Show more